AAL2PA KMIA-TNCM

Flight info

Callsign AAL2PA
Flight time 2h 27m
Altitude 35000
Route KLADA2 BITAC Y290 SLUGO
Aircraft A321/M-SDE3FGHIRWY/LB1

Departure

Time 2026-05-06 19:11
Airport Miami International Airport (KMIA)

Arrival

Time 2026-05-06 21:38
Airport Princess Juliana International Airport (TNCM)
Time Latitude Longitude Altitude Speed Heading
2026-05-06 18:21 25.79711 -80.28527 15 ft 0 kts 26°
2026-05-06 18:53 25.79691 -80.28539 15 ft 4 kts 32°
2026-05-06 18:53 25.79668 -80.28555 15 ft 4 kts 26°
2026-05-06 18:53 25.79653 -80.28564 15 ft 4 kts 304°
2026-05-06 18:54 25.79653 -80.28571 15 ft 0 kts 265°
2026-05-06 18:54 25.79651 -80.28597 15 ft 4 kts 265°
2026-05-06 18:54 25.79649 -80.28627 15 ft 4 kts 266°
2026-05-06 18:54 25.79648 -80.28657 15 ft 4 kts 267°
2026-05-06 18:55 25.79646 -80.28680 15 ft 4 kts 262°
2026-05-06 18:55 25.79642 -80.28709 15 ft 4 kts 265°
2026-05-06 18:55 25.79642 -80.28718 15 ft 1 kts 267°
2026-05-06 19:02 25.79642 -80.28725 15 ft 3 kts 267°
2026-05-06 19:02 25.79642 -80.28772 15 ft 9 kts 275°
2026-05-06 19:02 25.79682 -80.28812 15 ft 9 kts 354°
2026-05-06 19:03 25.79747 -80.28818 15 ft 10 kts 356°
2026-05-06 19:03 25.79822 -80.28822 15 ft 11 kts 357°
2026-05-06 19:03 25.79903 -80.28826 15 ft 12 kts 357°
2026-05-06 19:03 25.79984 -80.28831 16 ft 10 kts 353°
2026-05-06 19:04 25.80011 -80.28894 16 ft 11 kts 269°
2026-05-06 19:04 25.80008 -80.28981 16 ft 12 kts 268°
2026-05-06 19:04 25.80005 -80.29077 16 ft 13 kts 268°
2026-05-06 19:04 25.80000 -80.29177 16 ft 14 kts 267°
2026-05-06 19:05 25.79995 -80.29290 16 ft 17 kts 268°
2026-05-06 19:05 25.79989 -80.29437 14 ft 20 kts 266°
2026-05-06 19:05 25.79984 -80.29566 14 ft 15 kts 268°
2026-05-06 19:05 25.79980 -80.29682 14 ft 15 kts 267°
2026-05-06 19:06 25.79974 -80.29804 14 ft 16 kts 267°
2026-05-06 19:06 25.79971 -80.29888 14 ft 6 kts 268°
2026-05-06 19:06 25.79971 -80.29889 14 ft 0 kts 268°
2026-05-06 19:07 25.79971 -80.29896 14 ft 3 kts 269°
2026-05-06 19:07 25.79970 -80.29923 13 ft 4 kts 267°
2026-05-06 19:08 25.79974 -80.29959 13 ft 5 kts 289°
2026-05-06 19:08 25.79980 -80.29979 13 ft 0 kts 288°
2026-05-06 19:08 25.79984 -80.29993 13 ft 3 kts 287°
2026-05-06 19:08 25.79985 -80.29999 13 ft 0 kts 287°
2026-05-06 19:09 25.79987 -80.30005 13 ft 3 kts 287°
2026-05-06 19:09 25.79999 -80.30050 13 ft 10 kts 287°
2026-05-06 19:09 25.80041 -80.30096 14 ft 9 kts
2026-05-06 19:09 25.80077 -80.30037 13 ft 10 kts 84°
2026-05-06 19:10 25.80077 -80.29977 13 ft 7 kts 86°
2026-05-06 19:10 25.80080 -80.29916 13 ft 8 kts 87°
2026-05-06 19:10 25.80086 -80.29783 14 ft 43 kts 88°
2026-05-06 19:10 25.80109 -80.29191 17 ft 108 kts 87°
2026-05-06 19:11 25.80136 -80.28551 17 ft 142 kts 87°
2026-05-06 19:11 25.80190 -80.27321 245 ft 165 kts 88°
2026-05-06 19:11 25.80263 -80.26064 917 ft 163 kts 92°
2026-05-06 19:11 25.79913 -80.24858 1448 ft 170 kts 118°
2026-05-06 19:12 25.79324 -80.23611 1493 ft 196 kts 117°
2026-05-06 19:12 25.78723 -80.22317 1364 ft 176 kts 118°
2026-05-06 19:12 25.78206 -80.21183 1276 ft 155 kts 117°
2026-05-06 19:12 25.77702 -80.20090 1259 ft 162 kts 120°
2026-05-06 19:13 25.77193 -80.18974 1396 ft 163 kts 117°
2026-05-06 19:13 25.76688 -80.17821 1647 ft 171 kts 116°
2026-05-06 19:13 25.76140 -80.16668 2247 ft 167 kts 118°
2026-05-06 19:13 25.75574 -80.15532 2721 ft 170 kts 119°
2026-05-06 19:14 25.74979 -80.14386 3170 ft 173 kts 120°
2026-05-06 19:14 25.74358 -80.13234 3627 ft 175 kts 121°
2026-05-06 19:14 25.73728 -80.11987 3795 ft 195 kts 119°
2026-05-06 19:14 25.73046 -80.10631 4042 ft 206 kts 119°
2026-05-06 19:15 25.72464 -80.09100 4192 ft 225 kts 110°
2026-05-06 19:15 25.71942 -80.07398 4309 ft 250 kts 109°
2026-05-06 19:15 25.71373 -80.05462 4436 ft 277 kts 108°
2026-05-06 19:15 25.70780 -80.03383 5019 ft 281 kts 109°
2026-05-06 19:16 25.70172 -80.01344 5898 ft 277 kts 110°
2026-05-06 19:16 25.69524 -79.99318 6585 ft 280 kts 110°
2026-05-06 19:16 25.68848 -79.97278 7187 ft 283 kts 110°
2026-05-06 19:16 25.68155 -79.95218 7788 ft 287 kts 110°
2026-05-06 19:17 25.67452 -79.93132 8390 ft 290 kts 109°
2026-05-06 19:17 25.66740 -79.91020 8995 ft 294 kts 109°
2026-05-06 19:17 25.66025 -79.88885 9577 ft 297 kts 108°
2026-05-06 19:17 25.65304 -79.86721 10128 ft 302 kts 108°
2026-05-06 19:18 25.64554 -79.84462 10269 ft 322 kts 108°
2026-05-06 19:18 25.63769 -79.82096 10384 ft 340 kts 108°
2026-05-06 19:18 25.62933 -79.79582 10629 ft 353 kts 108°
2026-05-06 19:18 25.62077 -79.77017 11089 ft 357 kts 108°
2026-05-06 19:19 25.61208 -79.74424 11604 ft 360 kts 108°
2026-05-06 19:19 25.60333 -79.71809 12124 ft 363 kts 108°
2026-05-06 19:19 25.59450 -79.69176 12634 ft 366 kts 108°
2026-05-06 19:19 25.58524 -79.66543 13146 ft 369 kts 109°
2026-05-06 19:20 25.57555 -79.63893 13619 ft 372 kts 109°
2026-05-06 19:20 25.56564 -79.61227 14078 ft 376 kts 109°
2026-05-06 19:20 25.55564 -79.58543 14502 ft 379 kts 109°
2026-05-06 19:20 25.54560 -79.55832 14917 ft 382 kts 109°
2026-05-06 19:21 25.53555 -79.53090 15325 ft 385 kts 108°
2026-05-06 19:21 25.52546 -79.50328 15764 ft 389 kts 108°
2026-05-06 19:21 25.51525 -79.47541 16165 ft 392 kts 108°
2026-05-06 19:21 25.50496 -79.44730 16570 ft 395 kts 108°
2026-05-06 19:22 25.49473 -79.41939 16974 ft 399 kts 108°
2026-05-06 19:22 25.48421 -79.39076 17342 ft 403 kts 108°
2026-05-06 19:22 25.47358 -79.36188 17734 ft 407 kts 108°
2026-05-06 19:22 25.46285 -79.33275 18139 ft 410 kts 108°
2026-05-06 19:23 25.45205 -79.30341 18513 ft 414 kts 108°
2026-05-06 19:23 25.44109 -79.27373 18872 ft 416 kts 108°
2026-05-06 19:23 25.43011 -79.24396 19242 ft 419 kts 109°
2026-05-06 19:23 25.41907 -79.21401 19617 ft 421 kts 109°
2026-05-06 19:24 25.40799 -79.18393 19980 ft 424 kts 109°
2026-05-06 19:24 25.39685 -79.15362 20367 ft 426 kts 109°
2026-05-06 19:24 25.38560 -79.12316 20748 ft 429 kts 109°
2026-05-06 19:24 25.37425 -79.09255 21121 ft 431 kts 109°
2026-05-06 19:25 25.36285 -79.06179 21487 ft 434 kts 109°
2026-05-06 19:25 25.35138 -79.03081 21852 ft 437 kts 109°
2026-05-06 19:25 25.33986 -78.99964 22204 ft 439 kts 109°
2026-05-06 19:25 25.32826 -78.96833 22553 ft 442 kts 109°
2026-05-06 19:26 25.31656 -78.93686 22879 ft 444 kts 109°
2026-05-06 19:26 25.30477 -78.90523 23208 ft 446 kts 109°
2026-05-06 19:26 25.29293 -78.87345 23531 ft 449 kts 110°
2026-05-06 19:26 25.28116 -78.84189 23813 ft 451 kts 110°
2026-05-06 19:27 25.26921 -78.80981 24083 ft 453 kts 109°
2026-05-06 19:27 25.25720 -78.77757 24352 ft 455 kts 109°
2026-05-06 19:27 25.24510 -78.74517 24618 ft 457 kts 109°
2026-05-06 19:27 25.23297 -78.71264 24891 ft 459 kts 109°
2026-05-06 19:28 25.22082 -78.68003 25160 ft 461 kts 109°
2026-05-06 19:28 25.20859 -78.64716 25425 ft 463 kts 109°
2026-05-06 19:28 25.19631 -78.61424 25686 ft 465 kts 109°
2026-05-06 19:28 25.18394 -78.58121 25972 ft 466 kts 109°
2026-05-06 19:29 25.17131 -78.54824 26244 ft 468 kts 110°
2026-05-06 19:29 25.15806 -78.51534 26511 ft 470 kts 111°
2026-05-06 19:29 25.14442 -78.48250 26775 ft 472 kts 111°
2026-05-06 19:29 25.13053 -78.44944 27037 ft 474 kts 111°
2026-05-06 19:30 25.11664 -78.41634 27283 ft 476 kts 111°
2026-05-06 19:30 25.10282 -78.38317 27540 ft 478 kts 111°
2026-05-06 19:30 25.08900 -78.34971 27805 ft 480 kts 111°
2026-05-06 19:30 25.07520 -78.31606 28060 ft 482 kts 111°
2026-05-06 19:31 25.06159 -78.28277 28307 ft 483 kts 111°
2026-05-06 19:31 25.04771 -78.24886 28556 ft 485 kts 111°
2026-05-06 19:31 25.01977 -78.18084 29032 ft 489 kts 111°
2026-05-06 19:32 25.00563 -78.14657 29277 ft 491 kts 111°
2026-05-06 19:32 24.99144 -78.11227 29520 ft 493 kts 111°
2026-05-06 19:32 24.97719 -78.07784 29759 ft 495 kts 111°
2026-05-06 19:32 24.96283 -78.04322 30004 ft 496 kts 111°
2026-05-06 19:33 24.94841 -78.00848 30233 ft 498 kts 111°
2026-05-06 19:33 24.93413 -77.97410 30436 ft 500 kts 111°
2026-05-06 19:33 24.91962 -77.93914 30682 ft 501 kts 111°
2026-05-06 19:33 24.90510 -77.90420 30972 ft 501 kts 111°
2026-05-06 19:34 24.89060 -77.86934 31247 ft 500 kts 111°
2026-05-06 19:34 24.87609 -77.83440 31519 ft 500 kts 111°
2026-05-06 19:34 24.86157 -77.79952 31789 ft 501 kts 111°
2026-05-06 19:34 24.84702 -77.76459 32066 ft 501 kts 111°
2026-05-06 19:35 24.83252 -77.72974 32336 ft 501 kts 111°
2026-05-06 19:35 24.81801 -77.69490 32600 ft 501 kts 111°
2026-05-06 19:35 24.80368 -77.66055 32902 ft 499 kts 111°
2026-05-06 19:35 24.78918 -77.62584 33206 ft 498 kts 111°
2026-05-06 19:36 24.77470 -77.59117 33497 ft 498 kts 111°
2026-05-06 19:36 24.76020 -77.55653 33775 ft 498 kts 111°
2026-05-06 19:36 24.74555 -77.52198 34054 ft 498 kts 112°
2026-05-06 19:36 24.73040 -77.48765 34282 ft 498 kts 112°
2026-05-06 19:37 24.71488 -77.45364 34511 ft 498 kts 113°
2026-05-06 19:37 24.69907 -77.41969 34723 ft 498 kts 114°
2026-05-06 19:37 24.68322 -77.38582 34933 ft 498 kts 114°
2026-05-06 19:37 24.67272 -77.36333 35027 ft 499 kts 114°
2026-05-06 19:38 24.63624 -77.28429 35069 ft 496 kts 113°
2026-05-06 19:38 24.61103 -77.22896 35074 ft 496 kts 113°
2026-05-06 19:39 24.57980 -77.16049 35074 ft 493 kts 112°
2026-05-06 19:39 24.54890 -77.09319 35076 ft 492 kts 113°
2026-05-06 19:40 24.51809 -77.02643 35076 ft 493 kts 113°
2026-05-06 19:40 24.48704 -76.95918 35080 ft 493 kts 113°
2026-05-06 19:41 24.45602 -76.89202 35087 ft 493 kts 113°
2026-05-06 19:41 24.42509 -76.82515 35096 ft 493 kts 113°
2026-05-06 19:42 24.39404 -76.75805 35094 ft 493 kts 113°
2026-05-06 19:42 24.36300 -76.69106 35096 ft 492 kts 113°
2026-05-06 19:43 24.33191 -76.62417 35092 ft 492 kts 113°
2026-05-06 19:43 24.30079 -76.55734 35093 ft 492 kts 113°
2026-05-06 19:44 24.26964 -76.49054 35096 ft 492 kts 113°
2026-05-06 19:44 24.23872 -76.42418 35096 ft 491 kts 113°
2026-05-06 19:45 24.20760 -76.35751 35092 ft 491 kts 113°
2026-05-06 19:45 24.17644 -76.29075 35095 ft 491 kts 113°
2026-05-06 19:46 24.14522 -76.22404 35095 ft 491 kts 113°
2026-05-06 19:46 24.11395 -76.15749 35094 ft 491 kts 113°
2026-05-06 19:47 24.08280 -76.09138 35097 ft 491 kts 113°
2026-05-06 19:47 24.05145 -76.02476 35095 ft 491 kts 113°
2026-05-06 19:48 24.02014 -75.95825 35092 ft 491 kts 113°
2026-05-06 19:48 23.98880 -75.89188 35099 ft 491 kts 113°
2026-05-06 19:49 23.95771 -75.82595 35095 ft 491 kts 113°
2026-05-06 19:49 23.92635 -75.75965 35105 ft 491 kts 113°
2026-05-06 19:50 23.89496 -75.69338 35104 ft 491 kts 113°
2026-05-06 19:50 23.86356 -75.62713 35099 ft 491 kts 113°
2026-05-06 19:51 23.83215 -75.56092 35099 ft 490 kts 113°
2026-05-06 19:51 23.80066 -75.49477 35099 ft 490 kts 113°
2026-05-06 19:52 23.76917 -75.42860 35096 ft 490 kts 113°
2026-05-06 19:52 23.73769 -75.36252 35103 ft 490 kts 113°
2026-05-06 19:53 23.70636 -75.29701 35097 ft 490 kts 113°
2026-05-06 19:53 23.67466 -75.23095 35096 ft 490 kts 114°
2026-05-06 19:54 23.64298 -75.16495 35089 ft 490 kts 113°
2026-05-06 19:54 23.61165 -75.09936 35091 ft 490 kts 113°
2026-05-06 19:55 23.58011 -75.03352 35094 ft 490 kts 114°
2026-05-06 19:55 23.54837 -74.96764 35090 ft 490 kts 114°
2026-05-06 19:56 23.51658 -74.90167 35090 ft 490 kts 114°
2026-05-06 19:56 23.48502 -74.83626 35089 ft 490 kts 114°
2026-05-06 19:57 23.45327 -74.77044 35090 ft 490 kts 114°
2026-05-06 19:57 23.42150 -74.70465 35091 ft 490 kts 114°
2026-05-06 19:58 23.39510 -74.65003 35089 ft 490 kts 114°
2026-05-06 19:58 23.36316 -74.58428 35089 ft 490 kts 114°
2026-05-06 19:59 23.33147 -74.51901 35088 ft 490 kts 114°
2026-05-06 19:59 23.29956 -74.45327 35088 ft 490 kts 114°
2026-05-06 20:00 23.26761 -74.38761 35083 ft 490 kts 114°
2026-05-06 20:00 23.23579 -74.32240 35093 ft 490 kts 114°
2026-05-06 20:01 23.20379 -74.25691 35090 ft 491 kts 114°
2026-05-06 20:01 23.17172 -74.19134 35086 ft 491 kts 114°
2026-05-06 20:02 23.13967 -74.12584 35086 ft 491 kts 114°
2026-05-06 20:02 23.10768 -74.06028 35085 ft 491 kts 114°
2026-05-06 20:03 23.07562 -73.99490 35095 ft 491 kts 114°
2026-05-06 20:03 23.04351 -73.92953 35090 ft 491 kts 114°
2026-05-06 20:04 23.01131 -73.86414 35086 ft 491 kts 114°
2026-05-06 20:04 22.97907 -73.79877 35083 ft 491 kts 114°
2026-05-06 20:05 22.94684 -73.73345 35082 ft 491 kts 114°
2026-05-06 20:05 22.91464 -73.66811 35084 ft 491 kts 114°
2026-05-06 20:06 22.88249 -73.60330 35079 ft 491 kts 114°
2026-05-06 20:06 22.85022 -73.53801 35084 ft 491 kts 113°
2026-05-06 20:07 22.81801 -73.47280 35084 ft 491 kts 113°
2026-05-06 20:07 22.78569 -73.40766 35086 ft 490 kts 114°
2026-05-06 20:08 22.75337 -73.34263 35083 ft 490 kts 114°
2026-05-06 20:08 22.72101 -73.27757 35090 ft 490 kts 113°
2026-05-06 20:09 22.68849 -73.21253 35082 ft 491 kts 113°
2026-05-06 20:09 22.65596 -73.14753 35081 ft 491 kts 113°
2026-05-06 20:10 22.62374 -73.08281 35079 ft 491 kts 113°
2026-05-06 20:10 22.59136 -73.01773 35079 ft 491 kts 113°
2026-05-06 20:11 22.55879 -72.95277 35080 ft 491 kts 114°
2026-05-06 20:11 22.52609 -72.88788 35082 ft 491 kts 113°
2026-05-06 20:12 22.49346 -72.82291 35078 ft 492 kts 113°
2026-05-06 20:12 22.46078 -72.75795 35075 ft 491 kts 113°
2026-05-06 20:13 22.42816 -72.69308 35080 ft 491 kts 113°
2026-05-06 20:13 22.39555 -72.62827 35078 ft 490 kts 113°
2026-05-06 20:14 22.36295 -72.56351 35086 ft 490 kts 113°
2026-05-06 20:14 22.33025 -72.49884 35084 ft 490 kts 113°
2026-05-06 20:15 22.29777 -72.43457 35081 ft 490 kts 113°
2026-05-06 20:15 22.26507 -72.36992 35080 ft 490 kts 113°
2026-05-06 20:16 22.23229 -72.30534 35071 ft 491 kts 113°
2026-05-06 20:16 22.19941 -72.24078 35093 ft 491 kts 112°
2026-05-06 20:17 22.16656 -72.17618 35081 ft 491 kts 112°
2026-05-06 20:17 22.13376 -72.11160 35080 ft 490 kts 112°
2026-05-06 20:18 22.10095 -72.04711 35077 ft 490 kts 112°
2026-05-06 20:18 22.06805 -71.98265 35067 ft 490 kts 112°
2026-05-06 20:19 22.03531 -71.91866 35074 ft 490 kts 112°
2026-05-06 20:19 22.00240 -71.85440 35084 ft 490 kts 112°
2026-05-06 20:20 21.96949 -71.79016 35087 ft 489 kts 112°
2026-05-06 20:20 21.93665 -71.72601 35084 ft 489 kts 112°
2026-05-06 20:21 21.90377 -71.66190 35074 ft 489 kts 112°
2026-05-06 20:21 21.87088 -71.59783 35083 ft 489 kts 112°
2026-05-06 20:22 21.83789 -71.53374 35092 ft 489 kts 112°
2026-05-06 20:22 21.80487 -71.46975 35082 ft 488 kts 112°
2026-05-06 20:23 21.77206 -71.40622 35070 ft 488 kts 112°
2026-05-06 20:23 21.73905 -71.34234 35071 ft 488 kts 112°
2026-05-06 20:24 21.70605 -71.27845 35073 ft 488 kts 112°
2026-05-06 20:24 21.67298 -71.21454 35073 ft 488 kts 113°
2026-05-06 20:25 21.63993 -71.15075 35081 ft 488 kts 113°
2026-05-06 20:25 21.60708 -71.08746 35076 ft 487 kts 113°
2026-05-06 20:26 21.57332 -71.02414 35069 ft 491 kts 118°
2026-05-06 20:26 21.54110 -70.97326 35073 ft 492 kts 118°
2026-05-06 20:27 21.49620 -70.90276 35069 ft 492 kts 118°
2026-05-06 20:27 21.45759 -70.84215 35090 ft 491 kts 118°
2026-05-06 20:28 21.41903 -70.78160 35091 ft 491 kts 118°
2026-05-06 20:28 21.38055 -70.72117 35079 ft 490 kts 119°
2026-05-06 20:29 21.34204 -70.66102 35077 ft 490 kts 119°
2026-05-06 20:29 21.30343 -70.60070 35076 ft 490 kts 119°
2026-05-06 20:30 21.24555 -70.51022 35089 ft 490 kts 119°
2026-05-06 20:31 21.20703 -70.45010 35087 ft 488 kts 119°
2026-05-06 20:31 21.16877 -70.39044 35076 ft 488 kts 119°
2026-05-06 20:32 21.13030 -70.33059 35077 ft 487 kts 119°
2026-05-06 20:32 21.09182 -70.27073 35076 ft 487 kts 119°
2026-05-06 20:33 21.05342 -70.21101 35070 ft 487 kts 119°
2026-05-06 20:33 21.01520 -70.15172 35083 ft 486 kts 120°
2026-05-06 20:34 20.97669 -70.09211 35080 ft 485 kts 120°
2026-05-06 20:34 20.93827 -70.03258 35076 ft 485 kts 120°
2026-05-06 20:35 20.89993 -69.97325 35066 ft 485 kts 120°
2026-05-06 20:35 20.86176 -69.91435 35071 ft 484 kts 120°
2026-05-06 20:36 20.82339 -69.85501 35087 ft 484 kts 120°
2026-05-06 20:36 20.78503 -69.79586 35082 ft 483 kts 121°
2026-05-06 20:37 20.74696 -69.73720 35077 ft 483 kts 121°
2026-05-06 20:37 20.70868 -69.67823 35076 ft 482 kts 121°
2026-05-06 20:38 20.67031 -69.61928 35075 ft 482 kts 121°
2026-05-06 20:38 20.63200 -69.56043 35074 ft 482 kts 121°
2026-05-06 20:39 20.59372 -69.50162 35084 ft 482 kts 121°
2026-05-06 20:39 20.55560 -69.44312 35079 ft 482 kts 121°
2026-05-06 20:40 20.51723 -69.38446 35070 ft 482 kts 121°
2026-05-06 20:40 20.47881 -69.32570 35065 ft 482 kts 121°
2026-05-06 20:41 20.44068 -69.26742 35065 ft 482 kts 122°
2026-05-06 20:41 20.40227 -69.20877 35067 ft 482 kts 122°
2026-05-06 20:42 20.36381 -69.15007 35078 ft 482 kts 122°
2026-05-06 20:42 20.32540 -69.09146 35077 ft 482 kts 122°
2026-05-06 20:43 20.28713 -69.03319 35076 ft 482 kts 122°
2026-05-06 20:43 20.24856 -68.97469 35078 ft 482 kts 122°
2026-05-06 20:44 20.20989 -68.91610 35074 ft 482 kts 122°
2026-05-06 20:44 20.17783 -68.86744 35075 ft 482 kts 122°
2026-05-06 20:45 20.13933 -68.80894 35084 ft 482 kts 123°
2026-05-06 20:45 20.10075 -68.75046 35080 ft 483 kts 123°
2026-05-06 20:46 20.06241 -68.69180 35075 ft 482 kts 122°
2026-05-06 20:46 20.02575 -68.63257 35076 ft 482 kts 121°
2026-05-06 20:47 19.98930 -68.57260 35082 ft 482 kts 121°
2026-05-06 20:47 19.95256 -68.51285 35088 ft 482 kts 122°
2026-05-06 20:48 19.91552 -68.45332 35087 ft 482 kts 122°
2026-05-06 20:48 19.87871 -68.39426 35082 ft 482 kts 122°
2026-05-06 20:49 19.84173 -68.33487 35078 ft 482 kts 122°
2026-05-06 20:49 19.80472 -68.27538 35079 ft 482 kts 122°
2026-05-06 20:50 19.76775 -68.21602 35078 ft 482 kts 122°
2026-05-06 20:50 19.73078 -68.15673 35076 ft 481 kts 123°
2026-05-06 20:51 19.69375 -68.09737 35084 ft 481 kts 123°
2026-05-06 20:51 19.65698 -68.03856 35082 ft 481 kts 123°
2026-05-06 20:52 19.62000 -67.97942 35079 ft 481 kts 123°
2026-05-06 20:52 19.58299 -67.92032 35079 ft 481 kts 123°
2026-05-06 20:53 19.54593 -67.86115 35080 ft 481 kts 123°
2026-05-06 20:53 19.50911 -67.80240 35080 ft 481 kts 123°
2026-05-06 20:54 19.47198 -67.74336 35079 ft 480 kts 123°
2026-05-06 20:54 19.43482 -67.68430 35077 ft 480 kts 123°
2026-05-06 20:55 19.39807 -67.62564 35078 ft 480 kts 123°
2026-05-06 20:55 19.36110 -67.56670 35077 ft 480 kts 123°
2026-05-06 20:56 19.32399 -67.50784 35074 ft 481 kts 124°
2026-05-06 20:56 19.28682 -67.44903 35074 ft 481 kts 124°
2026-05-06 20:57 19.24955 -67.39008 35078 ft 481 kts 124°
2026-05-06 20:57 19.21237 -67.33122 35079 ft 481 kts 124°
2026-05-06 20:58 19.17536 -67.27269 35074 ft 481 kts 124°
2026-05-06 20:58 19.13809 -67.21389 35080 ft 481 kts 124°
2026-05-06 20:59 19.10082 -67.15506 35082 ft 481 kts 124°
2026-05-06 20:59 19.06356 -67.09624 35078 ft 480 kts 124°
2026-05-06 21:00 19.02655 -67.03795 35077 ft 480 kts 124°
2026-05-06 21:00 18.98929 -66.97934 35077 ft 480 kts 124°
2026-05-06 21:01 18.95204 -66.92074 35062 ft 480 kts 124°
2026-05-06 21:01 18.91480 -66.86225 35070 ft 480 kts 124°
2026-05-06 21:02 18.87750 -66.80373 35076 ft 479 kts 125°
2026-05-06 21:02 18.84018 -66.74531 35073 ft 479 kts 125°
2026-05-06 21:03 18.80312 -66.68736 35069 ft 479 kts 125°
2026-05-06 21:03 18.77023 -66.62634 35063 ft 479 kts 111°
2026-05-06 21:04 18.75572 -66.55800 35059 ft 478 kts 93°
2026-05-06 21:04 18.75144 -66.48811 35058 ft 478 kts 94°
2026-05-06 21:05 18.74667 -66.41793 35059 ft 479 kts 94°
2026-05-06 21:05 18.74186 -66.34773 35061 ft 479 kts 94°
2026-05-06 21:06 18.73711 -66.27758 35064 ft 479 kts 94°
2026-05-06 21:06 18.73236 -66.20746 35066 ft 480 kts 95°
2026-05-06 21:07 18.72758 -66.13721 35058 ft 480 kts 95°
2026-05-06 21:07 18.72282 -66.06679 35064 ft 481 kts 95°
2026-05-06 21:08 18.71803 -65.99691 35069 ft 481 kts 95°
2026-05-06 21:08 18.71317 -65.92650 35078 ft 481 kts 95°
2026-05-06 21:09 18.70825 -65.85606 35078 ft 481 kts 95°
2026-05-06 21:09 18.70327 -65.78557 35079 ft 481 kts 95°
2026-05-06 21:10 18.69835 -65.71505 35087 ft 482 kts 95°
2026-05-06 21:10 18.69346 -65.64500 35087 ft 482 kts 95°
2026-05-06 21:11 18.68845 -65.57456 35091 ft 482 kts 95°
2026-05-06 21:11 18.68334 -65.50413 35016 ft 481 kts 95°
2026-05-06 21:11 18.68084 -65.46912 34779 ft 476 kts 95°
2026-05-06 21:12 18.67835 -65.43438 34545 ft 473 kts 95°
2026-05-06 21:12 18.67589 -65.39985 34316 ft 471 kts 95°
2026-05-06 21:12 18.67316 -65.36546 34085 ft 469 kts 99°
2026-05-06 21:12 18.66787 -65.33165 33833 ft 466 kts 101°
2026-05-06 21:13 18.66242 -65.29839 33576 ft 464 kts 101°
2026-05-06 21:13 18.65694 -65.26484 33317 ft 462 kts 100°
2026-05-06 21:13 18.65151 -65.23151 33061 ft 460 kts 100°
2026-05-06 21:13 18.64610 -65.19832 32806 ft 458 kts 100°
2026-05-06 21:14 18.64071 -65.16528 32554 ft 456 kts 100°
2026-05-06 21:14 18.63534 -65.13239 32306 ft 454 kts 100°
2026-05-06 21:14 18.62997 -65.09963 32070 ft 452 kts 100°
2026-05-06 21:14 18.62461 -65.06697 31814 ft 450 kts 100°
2026-05-06 21:15 18.61928 -65.03441 31569 ft 448 kts 100°
2026-05-06 21:15 18.61400 -65.00205 31336 ft 447 kts 100°
2026-05-06 21:15 18.60879 -64.97020 31097 ft 445 kts 100°
2026-05-06 21:15 18.60351 -64.93822 30859 ft 442 kts 99°
2026-05-06 21:16 18.59824 -64.90634 30622 ft 439 kts 99°
2026-05-06 21:16 18.59301 -64.87469 30401 ft 437 kts 99°
2026-05-06 21:16 18.58781 -64.84317 30165 ft 435 kts 99°
2026-05-06 21:16 18.58264 -64.81180 29900 ft 433 kts 99°
2026-05-06 21:17 18.57746 -64.78059 29637 ft 430 kts 99°
2026-05-06 21:17 18.57231 -64.74974 29291 ft 425 kts 99°
2026-05-06 21:17 18.56725 -64.71920 28861 ft 421 kts 99°
2026-05-06 21:17 18.56224 -64.68890 28444 ft 418 kts 99°
2026-05-06 21:18 18.55734 -64.65924 28043 ft 415 kts 99°
2026-05-06 21:18 18.55237 -64.62933 27634 ft 412 kts 99°
2026-05-06 21:18 18.54740 -64.59963 27239 ft 410 kts 99°
2026-05-06 21:18 18.54246 -64.57018 26847 ft 407 kts 99°
2026-05-06 21:19 18.53754 -64.54086 26451 ft 405 kts 99°
2026-05-06 21:19 18.53263 -64.51164 26048 ft 402 kts 99°
2026-05-06 21:19 18.52777 -64.48265 25666 ft 400 kts 99°
2026-05-06 21:19 18.52295 -64.45384 25260 ft 398 kts 98°
2026-05-06 21:20 18.51816 -64.42513 24858 ft 396 kts 98°
2026-05-06 21:20 18.51501 -64.40619 24588 ft 395 kts 98°
2026-05-06 21:20 18.50868 -64.36846 24034 ft 393 kts 98°
2026-05-06 21:20 18.50393 -64.34011 23607 ft 392 kts 98°
2026-05-06 21:21 18.49919 -64.31187 23126 ft 390 kts 98°
2026-05-06 21:21 18.49446 -64.28385 22698 ft 387 kts 98°
2026-05-06 21:21 18.48975 -64.25605 22273 ft 384 kts 98°
2026-05-06 21:21 18.48506 -64.22847 21840 ft 381 kts 99°
2026-05-06 21:22 18.48041 -64.20114 21409 ft 378 kts 99°
2026-05-06 21:22 18.47584 -64.17402 20983 ft 375 kts 98°
2026-05-06 21:22 18.47131 -64.14709 20567 ft 372 kts 98°
2026-05-06 21:22 18.46682 -64.12027 20130 ft 370 kts 98°
2026-05-06 21:23 18.46233 -64.09365 19702 ft 368 kts 98°
2026-05-06 21:23 18.45784 -64.06714 19280 ft 366 kts 99°
2026-05-06 21:23 18.45333 -64.04074 18860 ft 365 kts 99°
2026-05-06 21:23 18.44883 -64.01451 18424 ft 363 kts 98°
2026-05-06 21:24 18.44437 -63.98836 17968 ft 362 kts 98°
2026-05-06 21:24 18.43997 -63.96237 17542 ft 359 kts 98°
2026-05-06 21:24 18.43561 -63.93662 17120 ft 356 kts 99°
2026-05-06 21:24 18.43126 -63.91104 16700 ft 353 kts 99°
2026-05-06 21:25 18.42691 -63.88568 16279 ft 351 kts 99°
2026-05-06 21:25 18.42263 -63.86077 15870 ft 349 kts 99°
2026-05-06 21:25 18.41831 -63.83562 15455 ft 347 kts 99°
2026-05-06 21:25 18.41405 -63.81067 15034 ft 345 kts 99°
2026-05-06 21:26 18.40982 -63.78583 14618 ft 344 kts 98°
2026-05-06 21:26 18.40559 -63.76108 14205 ft 342 kts 99°
2026-05-06 21:26 18.40138 -63.73643 13784 ft 341 kts 99°
2026-05-06 21:26 18.39718 -63.71196 13344 ft 338 kts 99°
2026-05-06 21:27 18.39259 -63.68780 12934 ft 336 kts 105°
2026-05-06 21:27 18.38354 -63.66553 12529 ft 334 kts 121°
2026-05-06 21:27 18.36918 -63.64650 12133 ft 332 kts 136°
2026-05-06 21:27 18.35237 -63.62989 11737 ft 330 kts 136°
2026-05-06 21:28 18.33569 -63.61337 11344 ft 328 kts 136°
2026-05-06 21:28 18.31943 -63.59724 11209 ft 316 kts 136°
2026-05-06 21:28 18.30358 -63.58151 10941 ft 310 kts 136°
2026-05-06 21:28 18.28808 -63.56610 10352 ft 304 kts 136°
2026-05-06 21:29 18.27285 -63.55096 9816 ft 299 kts 136°
2026-05-06 21:29 18.25799 -63.53621 9648 ft 290 kts 136°
2026-05-06 21:29 18.24337 -63.52178 9368 ft 285 kts 136°
2026-05-06 21:29 18.22894 -63.50760 9086 ft 282 kts 136°
2026-05-06 21:30 18.21469 -63.49364 8750 ft 280 kts 137°
2026-05-06 21:30 18.20035 -63.47968 8256 ft 278 kts 137°
2026-05-06 21:30 18.18657 -63.46624 7765 ft 269 kts 136°
2026-05-06 21:30 18.17328 -63.45288 7315 ft 259 kts 136°
2026-05-06 21:31 18.16027 -63.43985 6985 ft 262 kts 136°
2026-05-06 21:31 18.14712 -63.42662 6734 ft 262 kts 136°
2026-05-06 21:31 18.13381 -63.41335 6311 ft 265 kts 137°
2026-05-06 21:31 18.12036 -63.40016 5972 ft 264 kts 137°
2026-05-06 21:32 18.10687 -63.38716 5621 ft 263 kts 137°
2026-05-06 21:32 18.08466 -63.36537 5021 ft 263 kts 136°
2026-05-06 21:32 18.07183 -63.35166 4691 ft 262 kts 134°
2026-05-06 21:33 18.05931 -63.33796 4449 ft 256 kts 135°
2026-05-06 21:33 18.04710 -63.32501 4147 ft 241 kts 136°
2026-05-06 21:33 18.03539 -63.31301 3710 ft 232 kts 136°
2026-05-06 21:33 18.02415 -63.30126 3250 ft 222 kts 128°
2026-05-06 21:34 18.01645 -63.28822 3045 ft 200 kts 111°
2026-05-06 21:34 18.01451 -63.27367 2797 ft 206 kts 83°
2026-05-06 21:34 18.01906 -63.25943 2611 ft 205 kts 67°
2026-05-06 21:34 18.02323 -63.24557 2457 ft 196 kts 82°
2026-05-06 21:35 18.02535 -63.23153 2195 ft 195 kts 83°
2026-05-06 21:35 18.02708 -63.21737 1934 ft 196 kts 85°
2026-05-06 21:35 18.02811 -63.20311 1595 ft 192 kts 88°
2026-05-06 21:35 18.02884 -63.19356 1318 ft 185 kts 85°
2026-05-06 21:36 18.02943 -63.18877 1154 ft 183 kts 84°
2026-05-06 21:36 18.03140 -63.17606 918 ft 167 kts 82°
2026-05-06 21:36 18.03237 -63.17064 835 ft 159 kts 82°
2026-05-06 21:36 18.03277 -63.16804 798 ft 156 kts 84°
2026-05-06 21:37 18.03407 -63.15704 751 ft 138 kts 85°
2026-05-06 21:37 18.03512 -63.14709 649 ft 141 kts 85°
2026-05-06 21:37 18.03671 -63.13739 493 ft 136 kts 83°
2026-05-06 21:37 18.03844 -63.12752 294 ft 138 kts 85°
2026-05-06 21:38 18.03968 -63.11724 66 ft 141 kts 82°
2026-05-06 21:38 18.04107 -63.10777 28 ft 116 kts 81°
2026-05-06 21:38 18.04201 -63.10113 27 ft 58 kts 81°
2026-05-06 21:38 18.04232 -63.09911 27 ft 18 kts 81°
2026-05-06 21:39 18.04272 -63.09855 27 ft 9 kts 324°
2026-05-06 21:39 18.04247 -63.09929 27 ft 15 kts 243°
2026-05-06 21:39 18.04215 -63.10054 27 ft 21 kts 259°
2026-05-06 21:39 18.04192 -63.10212 27 ft 22 kts 262°
2026-05-06 21:40 18.04166 -63.10381 28 ft 26 kts 261°
2026-05-06 21:40 18.04136 -63.10590 28 ft 32 kts 261°
2026-05-06 21:40 18.04100 -63.10836 27 ft 29 kts 261°
2026-05-06 21:40 18.04074 -63.11019 28 ft 24 kts 262°
2026-05-06 21:41 18.04049 -63.11199 28 ft 15 kts 261°
2026-05-06 21:41 18.04065 -63.11288 27 ft 11 kts 340°
2026-05-06 21:41 18.04156 -63.11301 28 ft 14 kts 352°
2026-05-06 21:41 18.04228 -63.11314 29 ft 6 kts 350°
2026-05-06 21:42 18.04261 -63.11352 29 ft 6 kts 315°
2026-05-06 21:42 18.04300 -63.11359 29 ft 3 kts 354°
2026-05-06 21:42 18.04322 -63.11363 29 ft 1 kts 351°
2026-05-06 21:42 18.04327 -63.11364 29 ft 0 kts 351°